Theta_e
333 333 332 332 332 331 331 330 330 330 330 329 329 329 328 328 327 327 327 327 328 328 328 328 327 326 326 327 326 327 327 328 330 332 332 332 332 331 332 332 332 331 329 327 327 328 331 332 330 329 329 330 330 330 330 330 329 329 329 329 328 328 328
332 332 332 331 331 331 330 329 329 329 329 329 328 328 327 327 327 327 327 327 327 327 327 327 327 326 326 326 326 327 327 327 328 330 331 331 331 331 332 332 332 330 330 327 326 327 329 330 331 331 330 330 330 330 330 329 329 329 329 329 329 328 329
332 331 331 331 330 330 329 329 329 329 329 328 327 327 327 327 327 327 327 327 327 326 326 326 326 325 325 325 326 327 328 329 329 329 329 329 329 329 329 331 331 330 329 328 326 327 328 328 330 330 329 329 330 330 330 330 330 330 330 329 329 329 329
331 330 330 330 330 330 329 329 329 328 328 328 327 327 327 327 327 327 327 326 326 325 325 325 326 326 325 325 326 328 329 329 329 329 328 328 329 329 328 329 330 330 329 329 328 329 329 329 329 329 329 329 329 329 329 330 329 330 329 329 329 329 329
329 329 329 329 329 330 329 328 328 327 327 326 326 326 325 326 327 326 326 325 325 325 325 326 327 327 327 326 327 328 328 329 328 328 328 329 329 328 328 328 329 329 329 329 329 328 329 329 329 329 329 329 329 330 329 329 329 329 329 329 329 329 329
327 328 328 329 328 328 327 327 326 325 325 324 324 324 324 324 325 325 325 324 324 325 326 327 328 328 328 328 327 328 328 328 328 327 327 327 327 327 328 328 328 328 328 328 328 328 328 329 329 329 328 328 329 329 329 329 329 329 329 329 329 329 329
327 327 327 327 327 326 326 325 325 324 325 324 323 323 323 323 323 324 323 323 324 325 326 327 328 328 328 328 328 328 328 328 328 328 328 327 327 327 328 329 329 329 329 328 328 328 328 328 328 328 328 328 328 329 329 329 329 329 329 329 329 328 329
327 327 327 326 325 325 324 324 324 324 325 325 323 322 323 323 323 323 323 324 325 325 326 326 326 327 327 328 328 328 328 328 327 328 328 328 328 328 329 329 329 329 329 329 328 328 329 328 328 328 328 329 330 330 330 330 330 329 329 329 329 329 328
326 326 326 325 325 324 323 323 323 324 324 323 323 322 322 323 323 323 324 324 325 325 325 326 326 326 327 327 327 327 327 327 327 327 327 327 328 328 328 328 329 329 328 329 329 329 329 329 329 328 328 329 330 331 331 331 330 329 329 329 329 329 328
325 325 325 325 324 324 322 321 323 324 323 322 322 321 322 323 323 324 324 324 325 325 326 326 325 326 326 326 327 326 327 327 327 327 327 327 327 327 328 328 328 329 329 329 329 329 329 329 329 328 328 328 328 330 331 332 331 329 329 329 329 329 328
324 324 324 324 323 322 321 320 321 322 323 322 321 321 322 323 323 324 324 324 324 325 326 326 326 326 326 326 327 326 326 326 326 327 327 326 326 326 327 327 328 328 329 329 329 329 328 329 329 328 328 328 328 328 330 331 331 329 329 329 329 329 329
323 322 322 322 322 321 320 319 320 322 322 321 321 321 322 323 323 323 323 323 324 324 325 326 325 325 325 325 326 326 326 326 326 326 326 325 326 326 326 327 328 328 328 328 328 329 328 328 329 329 329 328 328 328 328 329 331 330 328 329 329 329 329
321 320 320 320 320 319 319 320 321 320 320 320 321 321 322 322 322 322 322 323 323 324 324 325 325 324 323 324 326 327 326 326 325 326 326 325 325 326 326 326 327 327 327 328 328 328 328 328 328 329 329 328 328 328 328 328 329 329 327 328 329 329 329
319 319 319 319 319 318 319 320 320 319 319 320 320 320 320 320 321 322 322 322 322 322 323 324 324 324 323 324 326 327 326 325 325 325 325 325 325 325 325 326 326 326 326 326 327 327 328 328 328 328 329 329 328 328 328 327 327 327 326 327 328 328 329
317 317 317 318 317 317 319 319 319 319 319 319 318 318 317 318 319 320 320 320 321 321 323 323 323 323 324 325 325 325 325 324 324 324 324 324 324 324 325 324 325 325 325 325 325 326 327 327 327 328 328 328 328 328 328 327 327 326 326 326 327 328 328
316 316 316 316 316 317 317 317 318 318 318 317 318 316 315 315 317 319 318 318 319 320 321 322 323 323 323 324 323 323 324 323 323 323 322 321 321 321 321 321 322 324 324 324 325 325 325 325 325 326 327 328 328 327 327 327 326 325 324 325 325 326 328
316 315 314 314 314 315 316 316 316 316 315 316 316 315 314 315 316 317 316 316 317 319 320 320 321 321 321 322 323 323 322 321 320 320 319 319 319 319 319 318 319 321 322 323 324 324 324 325 325 325 326 327 327 327 326 326 326 326 325 324 325 326 327
314 313 312 312 312 313 315 315 314 314 314 314 314 314 314 314 315 315 314 315 316 317 318 318 318 318 319 320 321 321 320 317 316 316 316 316 317 317 317 317 317 318 319 320 322 324 324 324 325 325 326 326 326 326 326 326 326 326 325 325 325 325 325
311 311 311 311 312 313 313 313 313 313 313 313 313 313 313 313 313 313 314 315 316 316 317 317 317 317 316 317 317 317 317 315 313 314 314 315 315 315 316 317 316 316 316 316 318 322 324 325 325 325 325 325 325 325 325 325 325 325 325 325 325 325 325
309 310 310 311 312 312 313 312 312 311 311 311 311 312 312 312 313 313 314 315 316 316 316 317 316 316 315 315 315 314 314 314 313 314 314 314 315 314 313 315 315 315 315 315 316 319 322 323 324 324 324 325 325 325 324 324 324 325 325 325 325 325 325
308 309 309 310 312 312 312 311 310 310 310 310 311 312 312 312 313 313 314 314 315 315 315 315 315 315 314 314 314 312 310 311 313 313 312 313 314 313 312 313 313 314 314 314 315 317 318 320 321 322 323 323 324 324 324 323 324 324 324 324 325 325 324
308 309 310 311 311 311 311 310 310 309 310 311 312 312 312 312 313 313 313 313 313 314 314 313 312 313 312 312 312 310 309 310 311 311 310 310 311 312 313 313 313 313 314 314 314 315 316 317 317 318 319 321 322 323 324 324 323 323 323 323 324 323 324
308 309 310 310 310 309 309 309 309 310 310 310 311 311 311 311 311 310 311 311 311 311 310 309 309 311 311 310 310 309 309 310 311 310 309 309 309 311 312 312 313 314 315 315 314 314 315 315 315 315 316 317 319 320 321 322 322 323 323 323 323 323 323
307 308 308 308 308 308 308 308 308 308 308 309 308 308 309 308 308 308 308 308 308 307 306 306 307 309 309 309 308 306 307 308 309 309 308 307 308 310 310 311 312 313 314 314 314 313 313 313 313 314 314 314 315 316 317 317 318 320 322 322 323 323 322
306 306 306 307 307 307 307 307 307 307 306 306 306 306 307 307 306 306 306 306 305 305 304 305 306 307 308 308 307 305 304 304 304 305 305 305 306 308 308 309 310 312 312 313 314 313 312 312 311 311 312 312 312 313 314 314 314 315 317 319 320 319 318
305 305 305 306 306 306 307 306 306 305 305 304 305 305 305 305 304 304 304 304 304 303 303 304 305 306 306 306 306 305 303 302 302 302 302 302 303 303 305 307 309 310 311 312 313 313 312 311 310 310 310 310 310 310 311 312 312 313 313 314 314 312 312
303 303 304 304 305 305 305 304 304 303 303 304 304 303 303 303 302 302 302 302 302 302 302 302 303 304 303 303 303 303 302 301 300 300 300 301 302 302 302 303 305 307 309 310 311 311 312 311 309 309 309 308 308 308 308 309 310 310 311 311 310 309 310
302 302 302 303 304 304 303 303 302 302 302 302 302 301 301 301 301 301 301 301 301 301 301 301 302 302 302 301 301 301 300 300 300 299 299 299 300 300 301 301 302 303 305 307 308 309 310 310 310 308 308 307 307 307 306 306 306 307 308 309 309 309 310
301 301 302 303 303 302 302 301 301 301 301 301 301 300 300 300 300 300 300 300 300 300 300 301 301 301 301 301 301 300 300 300 299 299 299 299 299 299 299 300 300 301 302 304 305 307 308 309 309 307 306 305 306 306 306 305 305 306 306 307 307 308 308
301 302 302 303 302 301 301 300 300 300 300 300 300 300 300 299 299 299 299 300 300 300 300 300 300 300 301 300 300 300 300 300 300 299 299 299 299 298 298 298 298 299 300 301 302 304 305 306 305 305 304 304 304 305 304 304 305 305 305 306 306 307 307
302 302 302 302 301 300 300 300 300 300 300 300 299 299 299 299 299 299 299 299 299 299 299 299 300 300 300 300 300 300 300 300 300 299 299 299 299 298 298 298 298 298 298 298 299 301 302 302 302 302 302 302 303 303 303 303 303 303 303 304 304 304 305
302 302 301 300 300 300 300 300 299 299 299 299 299 299 299 299 299 299 299 299 299 300 300 300 300 300 300 300 300 300 300 300 299 299 299 299 299 298 298 298 297 297 297 297 298 298 299 300 300 300 301 301 301 301 301 302 302 302 302 302 302 302 302
301 300 300 299 299 299 299 299 299 299 299 299 299 299 299 300 300 300 299 299 299 300 300 300 300 300 300 299 299 299 299 299 299 299 299 299 299 298 298 298 297 297 298 297 297 297 297 298 299 299 300 300 300 300 300 301 301 301 301 301 300 300 301
299 299 299 299 299 299 299 299 299 299 299 299 299 299 299 299 299 299 299 299 299 299 300 300 300 299 299 299 299 299 299 299 298 298 298 298 298 298 298 298 298 298 298 298 297 297 297 297 298 299 299 299 299 299 300 300 300 300 300 300 300 300 300
299 298 298 298 298 298 298 298 298 298 298 298 298 299 299 298 298 298 298 298 298 298 299 299 299 299 298 298 298 298 298 298 298 298 298 298 298 298 298 298 298 298 297 297 297 297 297 297 297 298 299 299 299 299 299 299 299 299 299 299 299 299 299
298 298 298 297 297 297 296 297 297 298 298 298 298 298 298 297 297 297 297 297 297 297 298 298 298 298 297 297 297 297 297 297 297 297 297 297 297 297 297 298 298 297 297 297 297 297 297 297 297 298 298 299 298 298 298 299 299 299 299 298 298 298 298
297 297 297 297 297 296 296 296 297 298 298 298 298 297 297 297 297 296 296 296 296 296 296 297 297 296 296 296 296 296 296 296 296 296 296 296 296 296 297 297 297 297 296 297 297 297 297 297 297 298 298 298 298 298 298 298 298 298 298 298 297 297 298
Wind_Speed
6 6 7 7 8 10 11 13 14 15 15 16 17 18 18 19 20 20 20 19 17 16 15 15 17 18 18 19 19 19 19 20 21 21 23 22 19 20 23 25 25 26 26 22 16 10 4 3 6 12 18 23 26 27 28 29 31 32 34 35 33 31 29
7 7 7 8 10 11 13 15 16 17 17 17 18 19 19 20 20 21 20 19 19 18 18 17 18 19 18 19 18 19 19 19 21 22 22 21 20 20 20 20 23 25 24 22 21 18 11 7 5 5 10 17 20 26 29 29 30 33 34 35 34 33 31
8 8 9 10 11 13 15 16 16 17 18 18 19 19 19 20 20 19 19 19 20 20 19 18 19 19 18 18 17 18 20 21 23 23 23 22 22 22 21 19 20 21 16 12 16 19 14 10 8 5 7 11 12 19 28 31 31 32 34 34 34 34 33
10 11 11 12 12 14 15 15 16 17 17 19 19 19 19 19 19 18 19 20 21 20 20 20 20 20 19 18 18 20 21 22 22 23 23 22 21 22 22 23 21 18 14 12 15 18 13 9 7 5 8 14 14 17 23 29 32 31 32 33 34 35 35
9 10 10 11 12 13 14 15 17 17 17 18 19 19 19 20 19 19 20 21 21 21 20 20 20 19 19 18 18 20 20 21 21 21 20 19 19 20 20 21 23 23 22 19 16 17 17 16 12 6 8 13 13 15 19 22 26 29 30 31 33 35 35
8 8 8 9 10 11 12 13 15 16 17 18 19 20 21 20 19 19 20 20 20 19 18 18 19 19 18 17 17 18 18 19 20 19 19 19 18 18 19 22 23 24 25 23 20 19 20 21 16 9 10 13 11 11 15 17 20 24 27 30 33 34 34
7 7 7 8 9 10 11 12 13 15 16 17 18 19 20 20 19 18 18 18 18 18 17 18 18 18 18 17 17 17 17 18 20 19 19 19 19 19 20 23 24 24 25 24 23 23 22 21 18 12 10 11 12 10 11 16 19 18 21 28 32 32 33
6 6 7 7 8 10 12 12 13 13 14 16 17 18 19 19 19 18 17 17 18 18 18 18 18 18 18 18 17 17 17 17 17 18 18 18 18 20 21 22 23 24 24 24 24 24 25 24 23 21 14 8 8 7 7 12 16 18 21 24 27 31 33
6 7 7 7 9 10 11 11 11 11 12 15 17 18 18 17 17 17 17 17 17 18 18 18 18 17 17 18 17 16 16 15 15 14 15 14 15 17 20 21 23 23 24 24 24 24 26 27 27 26 22 13 7 4 5 6 8 14 21 22 22 29 33
5 5 5 6 8 8 10 11 10 10 12 14 16 17 16 15 15 16 17 18 18 18 18 18 18 17 17 19 19 16 15 15 15 14 14 14 15 15 16 18 20 22 23 23 23 24 25 27 28 27 25 22 14 6 4 6 5 8 17 23 23 24 30
5 6 6 6 6 8 10 10 9 10 12 13 15 16 15 14 15 15 17 17 18 18 17 17 18 17 18 20 21 19 17 15 15 15 15 16 17 17 16 16 16 17 19 20 21 23 24 25 27 28 27 27 24 15 8 6 7 10 15 21 24 24 27
5 6 6 6 6 8 9 8 8 10 12 13 14 14 14 14 15 16 16 16 17 17 16 17 18 18 18 19 20 21 21 18 16 15 16 16 18 19 19 18 17 16 17 18 19 21 22 23 25 27 28 29 29 26 19 10 6 11 16 20 25 26 26
4 4 4 3 6 6 6 6 8 11 12 13 13 12 13 13 14 15 16 16 17 17 17 17 19 20 20 20 20 21 23 22 19 18 18 18 19 19 19 19 19 18 17 16 16 18 20 22 25 26 26 26 27 28 26 17 7 8 16 20 23 26 27
3 3 2 4 4 4 4 7 9 11 12 11 12 13 13 14 14 15 17 18 19 19 19 19 20 21 22 21 21 21 23 23 22 22 21 20 22 21 19 19 19 18 17 16 16 17 16 17 21 25 26 25 24 25 25 19 10 6 10 16 19 21 25
2 2 2 3 3 4 7 9 9 10 10 10 12 14 15 16 16 17 19 20 21 20 20 19 19 21 22 22 22 22 22 23 23 23 22 22 23 23 21 20 19 19 18 17 16 17 17 15 15 16 20 22 22 22 22 19 13 7 7 12 14 16 19
4 4 5 6 7 9 10 10 10 10 10 10 11 14 16 18 18 19 21 22 22 21 20 19 19 21 22 22 22 22 21 22 23 23 23 23 23 23 22 22 22 20 18 17 17 18 18 16 15 14 13 16 18 19 20 19 16 11 8 8 10 12 14
8 9 10 10 11 11 11 11 11 11 12 12 12 14 18 19 19 22 23 25 25 23 21 20 20 22 22 21 20 20 20 21 21 22 22 23 24 24 23 24 26 24 20 19 19 19 19 17 15 13 11 13 15 16 17 18 18 15 12 10 10 12 13
10 11 12 12 12 12 11 11 13 14 14 15 15 17 20 21 23 25 26 28 28 26 24 22 22 22 21 20 19 18 19 20 21 23 23 23 24 24 24 25 26 27 25 23 22 21 20 19 16 12 9 9 11 13 15 16 18 17 14 13 12 13 14
12 13 13 13 12 12 12 13 15 16 16 17 19 20 22 24 26 27 28 29 29 29 28 26 25 25 24 23 23 23 23 24 25 26 26 25 24 24 24 25 25 26 27 28 26 23 20 19 17 15 11 9 8 11 14 14 14 14 15 14 13 13 14
14 14 14 14 13 13 14 15 16 17 18 19 20 21 24 26 27 28 29 29 30 30 30 29 29 29 29 28 29 30 30 30 30 31 30 29 26 25 24 25 25 26 26 28 30 27 23 20 17 15 13 11 9 9 12 12 11 11 12 11 11 12 14
14 14 14 14 14 15 16 16 17 18 19 20 21 22 25 26 26 28 29 29 29 29 30 31 30 30 30 30 31 32 32 32 32 33 34 33 31 30 29 27 27 27 25 26 29 28 26 23 18 15 13 12 10 8 8 9 9 10 10 10 10 12 12
15 15 15 15 16 17 18 18 19 20 21 22 22 23 25 26 27 28 28 29 29 29 30 31 30 29 30 31 32 33 33 33 34 33 33 34 35 35 35 33 32 30 27 27 29 29 28 25 23 21 18 14 11 8 7 7 7 8 10 11 11 11 11
16 16 17 18 19 20 20 21 22 23 23 24 24 25 26 27 28 28 29 29 29 29 30 29 28 28 29 30 31 32 33 36 36 35 35 34 34 35 37 36 35 32 30 30 31 31 30 29 28 27 25 23 19 14 11 9 7 7 9 10 9 9 9
18 19 20 21 21 22 22 23 24 25 25 26 26 26 27 28 29 29 29 29 29 29 29 27 27 28 29 30 31 31 34 36 37 37 37 36 35 36 37 37 36 35 33 31 31 31 31 31 32 32 31 30 29 26 23 20 16 11 7 8 8 7 7
20 21 22 22 23 23 23 24 25 26 26 27 27 27 28 29 29 29 29 30 30 29 28 26 26 28 29 30 31 32 35 37 38 39 38 38 38 37 38 37 36 37 35 31 29 29 29 30 31 33 34 35 35 34 32 30 27 22 17 13 11 10 9
22 22 22 23 23 23 24 25 26 27 27 27 28 29 30 31 31 31 31 31 31 29 28 27 27 28 30 31 33 34 36 37 39 40 40 39 39 38 39 39 38 38 36 33 31 29 27 28 30 32 34 36 38 38 37 35 32 29 26 23 21 21 20
23 23 23 24 24 25 26 27 27 27 28 29 30 31 32 33 33 34 33 33 32 31 29 28 27 29 31 32 33 35 37 37 38 39 40 40 40 39 39 40 39 38 37 36 35 31 28 28 30 33 35 36 38 39 39 39 37 35 33 31 29 27 26
23 23 24 25 26 27 27 28 28 28 29 30 31 32 33 34 34 35 34 34 35 33 31 28 28 29 31 32 33 35 36 37 38 39 39 40 41 40 39 39 39 39 38 37 35 33 31 30 31 33 35 36 36 37 38 38 38 37 37 35 34 33 31
23 24 25 26 27 28 28 28 28 29 30 32 32 32 33 34 34 34 35 35 36 35 33 31 30 30 31 32 34 35 36 37 38 38 39 39 40 41 40 40 39 39 38 38 36 34 33 32 33 35 34 34 35 35 34 34 34 36 36 35 35 35 35
23 24 25 26 27 27 27 28 28 29 31 32 33 33 34 34 34 34 35 35 35 35 34 33 32 32 32 33 34 35 36 36 37 37 37 37 38 40 40 41 40 39 39 38 36 35 35 34 35 36 35 35 36 36 34 32 32 33 33 33 34 33 33
23 24 25 26 27 27 27 28 28 29 31 32 33 33 33 33 33 33 33 33 33 33 32 32 31 31 32 32 34 35 35 36 36 36 36 36 37 38 38 38 39 39 39 38 37 36 36 36 36 36 34 34 36 37 35 33 33 33 33 34 34 35 35
24 25 26 27 27 27 27 28 28 29 30 31 31 31 31 32 32 32 32 31 31 32 31 30 30 31 31 31 32 33 34 35 36 35 35 35 36 36 36 37 37 37 38 38 38 38 37 37 37 35 33 33 33 32 31 32 33 34 34 36 37 37 38
24 26 26 26 27 27 27 27 28 28 29 29 30 30 31 32 32 31 31 31 31 31 30 30 29 30 31 31 31 31 33 34 34 33 33 34 35 35 35 35 35 35 36 37 37 38 38 38 38 37 35 34 31 28 28 31 32 33 34 35 36 37 37
25 25 26 26 26 26 26 26 26 27 28 28 30 31 31 31 31 31 30 30 30 30 29 29 29 29 30 30 30 30 31 32 31 30 32 33 33 34 34 33 33 33 34 36 36 37 37 36 37 37 36 34 30 28 29 31 32 33 35 35 36 38 37
24 25 25 25 25 26 25 25 25 26 27 29 30 30 30 30 30 30 29 29 29 28 28 27 27 27 28 28 28 28 29 28 27 29 31 32 32 32 31 31 31 31 32 35 35 36 36 36 36 35 34 33 33 33 33 32 33 35 35 36 36 37 37
24 24 24 24 25 25 25 24 25 26 27 29 30 29 28 28 28 28 28 28 27 27 26 26 26 26 26 27 27 27 26 26 26 27 30 31 30 30 29 29 29 30 31 33 34 35 36 36 36 34 33 33 35 36 36 35 35 35 35 36 36 34 34
23 23 23 23 24 25 25 25 26 26 27 28 28 27 26 26 27 28 27 26 26 25 25 25 25 25 25 25 25 25 25 25 25 26 28 29 28 28 28 28 28 29 31 32 33 34 35 36 35 34 33 34 35 36 37 36 35 35 35 35 34 32 31
Wind_Direction
51 37 23 14 6 2 356 348 347 347 347 347 345 344 342 341 340 338 336 334 331 328 324 317 312 309 305 302 300 298 294 292 290 278 270 269 259 251 246 237 240 248 245 237 230 233 249 253 232 229 234 236 235 235 235 234 232 230 230 228 225 224 223
40 27 14 360 355 353 348 343 340 339 340 340 339 338 339 340 339 338 338 337 335 333 329 321 312 308 305 303 303 302 297 293 291 286 278 275 274 270 260 242 237 244 246 238 229 231 236 240 234 214 224 230 231 234 235 235 234 232 232 230 226 224 224
15 3 352 347 347 345 342 341 340 339 338 336 335 338 340 341 341 342 342 341 340 338 334 328 321 317 312 307 306 304 301 296 289 284 280 279 283 283 282 273 252 238 235 229 222 223 225 230 236 230 212 209 217 228 229 231 233 232 232 231 227 225 225
1 355 350 350 350 347 344 342 340 340 338 337 339 342 344 345 346 346 347 348 348 346 342 337 332 329 324 318 314 309 306 301 290 283 280 279 282 285 286 285 276 260 247 238 222 215 214 216 226 238 218 209 216 225 225 227 229 230 230 229 226 225 225
358 357 357 1 358 351 345 341 341 343 344 346 349 352 352 351 352 354 355 355 353 348 343 341 337 334 329 323 318 314 312 311 301 291 284 280 281 285 286 286 287 283 275 265 245 227 225 224 222 233 225 213 220 232 229 227 227 228 228 227 226 226 225
1 360 1 7 3 354 351 351 354 357 357 356 357 360 358 354 358 1 356 353 351 347 343 343 343 341 335 325 317 313 314 317 313 303 291 283 284 287 289 287 283 280 279 275 266 254 244 235 228 233 231 216 216 231 230 226 224 225 225 226 229 228 226
1 4 7 8 3 0 4 8 9 10 9 4 360 0 358 355 357 358 352 351 355 354 349 347 347 349 346 339 331 327 325 323 320 314 304 296 294 294 289 283 278 275 276 277 270 260 249 239 233 234 232 218 215 217 216 218 218 216 218 223 227 228 227
21 26 25 18 17 17 15 13 13 16 17 12 5 1 360 359 357 357 358 360 360 357 354 352 350 349 349 348 345 342 340 336 328 319 312 308 303 300 292 284 279 275 273 272 266 257 248 243 239 235 228 216 211 209 204 209 211 213 217 217 220 223 225
41 38 34 33 33 33 29 20 15 20 18 10 6 4 1 1 359 1 7 5 1 357 355 354 350 347 351 354 351 348 347 347 344 333 323 317 311 305 299 291 283 277 276 273 264 257 250 245 242 235 225 217 212 208 213 209 207 220 220 213 213 220 222
31 37 37 40 31 25 29 18 6 16 18 7 6 5 1 2 3 6 8 7 5 3 0 359 355 353 360 2 360 356 351 349 350 351 347 338 331 321 312 303 292 283 282 279 269 263 258 250 245 238 226 221 218 210 219 220 210 218 216 211 211 216 218
65 63 45 35 16 5 11 2 353 16 23 12 10 8 2 5 8 8 9 8 7 8 8 6 1 2 9 9 8 7 1 356 355 358 358 352 351 349 340 332 319 302 294 289 281 273 265 255 248 241 232 226 221 218 222 226 221 218 211 209 212 214 216
62 37 14 10 9 5 4 360 9 28 26 16 14 11 7 11 12 12 13 10 8 13 17 11 5 8 13 13 13 13 10 8 5 4 7 3 360 358 355 352 345 333 321 308 296 284 270 258 249 242 236 229 222 220 223 226 233 225 213 207 212 217 219
23 2 347 5 14 8 8 22 35 35 26 18 16 16 15 18 21 21 19 15 16 21 21 16 10 11 14 16 18 17 14 17 17 14 14 11 7 2 360 359 354 349 345 331 314 299 281 264 254 246 239 230 221 219 221 223 233 238 224 216 215 219 223
17 14 41 49 23 7 35 49 49 39 28 23 25 26 27 30 32 30 27 26 27 27 25 21 19 20 22 23 26 24 20 21 22 20 17 12 9 8 6 4 0 356 353 346 337 324 306 283 264 252 242 234 226 221 219 219 227 246 231 221 218 220 223
19 21 71 79 64 64 65 60 52 41 33 33 38 38 37 38 38 36 34 32 31 31 30 28 28 30 32 32 32 29 26 25 23 22 19 13 9 8 7 4 2 359 357 355 351 341 332 320 301 276 250 232 225 222 219 220 225 233 227 216 215 220 222
97 102 104 100 89 78 71 63 54 46 44 46 49 49 45 41 40 41 39 35 33 32 33 34 36 38 37 36 33 29 28 28 27 25 22 17 13 11 8 5 1 358 356 358 358 352 344 335 327 318 281 242 229 226 223 224 228 230 232 226 218 220 221
112 106 96 89 85 80 75 69 61 57 56 55 55 55 51 45 44 44 41 38 36 34 36 39 42 41 37 34 33 29 28 27 26 26 24 21 20 20 16 10 6 5 1 358 358 358 356 347 338 333 306 265 246 234 229 231 234 232 230 229 229 231 230
107 101 93 87 83 80 75 71 68 66 65 61 58 57 56 51 49 48 46 43 39 37 38 40 40 39 35 33 33 32 30 29 28 29 29 26 24 25 23 16 12 12 11 7 4 0 357 354 348 341 319 283 257 241 236 233 230 228 226 228 235 239 240
102 97 93 88 82 78 75 75 75 72 68 65 61 59 59 57 54 52 49 47 44 42 42 42 40 39 38 38 40 40 39 41 40 38 36 34 29 26 24 21 17 16 16 15 14 8 359 353 349 346 337 319 285 252 240 233 230 230 232 236 241 241 238
99 95 92 87 82 80 80 80 81 76 70 67 64 61 61 60 58 56 52 50 49 47 46 46 45 44 43 43 45 44 45 46 47 45 42 39 36 30 23 21 21 20 20 20 21 18 9 1 355 350 342 333 317 277 245 238 239 239 237 236 234 232 230
98 94 91 88 85 84 82 80 80 78 73 71 68 66 65 63 62 61 57 55 52 48 47 46 45 46 45 45 47 47 46 46 47 47 43 40 40 37 31 27 26 25 26 26 26 25 22 17 13 7 354 339 326 305 269 250 242 241 248 247 236 228 225
98 95 93 91 88 86 83 81 81 79 77 75 73 71 69 66 65 63 61 59 56 52 51 49 48 48 48 48 49 49 47 47 46 44 42 39 39 39 38 35 32 32 35 38 37 35 33 31 29 26 19 8 353 334 315 293 259 246 253 255 249 235 222
98 97 95 93 90 88 85 83 82 79 78 76 74 72 70 68 65 63 62 61 60 58 57 55 54 55 55 55 54 52 52 52 50 46 44 39 36 37 38 37 34 34 38 43 43 41 42 44 43 40 37 33 28 19 5 345 313 277 256 252 256 242 220
100 98 96 94 92 90 88 85 83 80 78 75 74 72 71 68 65 63 61 61 60 58 56 56 57 59 60 59 58 56 55 54 53 49 47 43 39 38 38 36 34 34 35 39 41 41 42 46 49 50 50 48 45 42 36 28 16 357 325 290 282 269 244
100 98 96 95 93 91 89 87 83 81 78 75 73 72 70 68 65 63 61 60 59 58 56 56 58 59 60 60 60 58 56 54 52 50 47 45 42 41 39 37 35 35 33 33 36 39 39 40 44 49 51 52 52 51 48 43 37 29 20 8 2 6 354
99 98 96 96 95 93 90 87 83 81 78 76 75 73 70 69 66 63 62 60 60 59 58 58 59 60 60 61 61 60 57 55 53 50 48 46 44 42 41 39 38 37 35 32 33 36 38 39 40 44 46 48 49 49 50 49 46 43 40 37 36 31 22
100 98 97 97 95 92 89 86 84 82 81 79 77 74 71 69 68 65 64 62 61 60 59 60 61 63 63 62 62 61 60 57 55 52 50 48 46 44 43 41 39 38 37 37 35 35 37 40 42 43 45 46 45 46 47 48 49 49 49 48 47 40 32
102 100 99 97 95 92 90 87 85 83 81 79 77 75 73 71 69 67 65 64 62 60 58 59 61 63 64 63 62 62 60 58 57 54 52 50 49 47 45 44 43 40 39 40 41 40 39 40 43 45 45 45 47 47 46 46 47 51 52 53 53 50 44
104 102 100 98 95 92 90 88 86 84 84 82 79 77 75 73 71 69 67 65 64 61 58 57 59 61 62 62 62 61 60 59 57 55 53 52 50 49 47 46 46 44 42 42 43 44 44 44 45 46 44 43 45 48 47 47 49 51 53 53 53 54 51
107 104 103 99 96 94 92 91 88 87 86 84 80 78 76 74 72 70 68 66 64 62 59 57 57 58 59 60 61 60 59 59 57 55 53 52 52 51 49 47 46 45 44 43 42 44 46 47 47 46 44 42 42 42 41 43 48 51 52 52 51 51 49
109 107 104 101 99 98 96 93 91 89 88 85 82 80 78 76 73 70 68 66 64 62 60 57 55 55 56 57 59 59 59 58 56 55 53 52 52 51 50 49 47 46 45 44 43 43 45 47 47 45 43 43 43 40 36 36 41 44 46 48 48 48 48
112 109 106 104 103 101 98 96 94 92 90 87 85 82 79 77 74 70 68 66 63 61 59 56 54 53 52 52 54 56 57 57 55 53 52 51 52 51 50 49 47 46 46 44 44 44 45 47 47 46 44 43 42 39 36 37 39 40 41 42 43 43 43
114 112 110 107 105 104 101 100 98 95 93 90 87 83 80 77 74 71 68 65 63 61 59 57 56 53 51 50 50 52 55 55 53 52 51 51 51 50 50 48 47 46 45 45 45 45 45 47 48 47 46 45 42 38 38 41 42 43 43 42 41 41 41
116 113 112 111 109 106 104 102 100 98 95 92 88 85 82 79 76 73 69 66 64 62 60 59 57 53 51 49 49 51 53 54 53 52 53 53 52 50 49 48 47 46 46 45 45 44 45 46 47 48 48 47 45 43 43 42 42 43 43 41 39 38 38
118 116 115 114 111 107 105 103 102 100 97 94 91 88 84 81 78 75 71 67 65 63 61 60 57 54 52 50 50 51 53 53 53 53 55 54 53 52 50 49 49 48 48 47 46 45 45 45 46 47 48 47 47 46 46 44 42 42 40 37 37 36 35
120 119 118 116 112 108 107 106 104 103 100 97 94 90 86 82 80 77 73 69 66 64 62 60 58 56 54 53 53 53 54 55 54 54 56 56 54 53 52 51 51 50 48 48 47 46 45 45 45 46 46 46 46 45 46 45 44 42 40 37 35 33 32
123 121 119 117 114 111 110 110 107 105 102 99 95 90 86 84 82 79 75 72 69 66 64 62 59 57 56 54 55 55 55 56 54 54 55 55 53 52 51 51 51 49 47 47 47 47 47 46 45 46 46 46 45 44 43 43 43 42 41 38 35 32 31